Location: Albuquerque Trailhead
(34.7934°N, 106.3736°W)
Time: 22:38:11
(UTC+00:00)

Cosmos 1500 Rocket - Pass Details

Date: 20 June 2021
Orbit: 604 x 630 km, 82.5° (Epoch: 01 August)

Event Time Altitude Azimuth Distance (km) Brightness Sun altitude
Exits shadow 10:29:43 15° 184° (S) 1,659 5.3 -14.5°
Maximum altitude 10:33:19 87° 95° (E) 613 3.5 -14.0°
Drops below altitude 10° 10:37:39 10° 7° (N) 1,958 6.9 -13.3°
Sets 10:39:52 0° 7° (N) 2,864 7.8 -13.0°
